This is the latest recevied weather packets stored in our database for station/object TA1FM. If no packets are shown the sender has not sent any weather packets the latest 10 day(s).
| Time | Temp. | Humidity | Pressure | Rain* | Wind** | Luminosity | Snow |
|---|---|---|---|---|---|---|---|
| 1777739640 | 3.89° C | 74% | 911.1 hPa | - | - | - | - |
| 1777738740 | 3.89° C | 73% | 911.3 hPa | - | - | - | - |
| 1777737840 | 3.89° C | 74% | 911.4 hPa | - | - | - | - |
| 1777736940 | 3.89° C | 75% | 911.3 hPa | - | - | - | - |
| 1777736040 | 3.89° C | 75% | 911.3 hPa | - | - | - | - |
| 1777735140 | 3.89° C | 74% | 911.4 hPa | - | - | - | - |
| 1777734239 | 3.89° C | 75% | 911.4 hPa | - | - | - | - |
| 1777733339 | 3.89° C | 77% | 911.4 hPa | - | - | - | - |
| 1777731539 | 3.89° C | 82% | 911.7 hPa | - | - | - | - |
| 1777730639 | 3.89° C | 84% | 911.6 hPa | - | - | - | - |
| 1777729739 | 3.89° C | 85% | 911.9 hPa | - | - | - | - |
| 1777728839 | 3.89° C | 87% | 911.8 hPa | - | - | - | - |
| 1777727939 | 3.89° C | 89% | 911.8 hPa | - | - | - | - |
| 1777727038 | 3.89° C | 89% | 911.4 hPa | - | - | - | - |
| 1777726138 | 3.89° C | 89% | 912 hPa | - | - | - | - |
| 1777725238 | 3.89° C | 88% | 911.9 hPa | - | - | - | - |
| 1777724338 | 3.89° C | 86% | 911.8 hPa | - | - | - | - |
| 1777723438 | 3.89° C | 86% | 912 hPa | - | - | - | - |
| 1777722538 | 3.89° C | 86% | 912 hPa | - | - | - | - |
| 1777721638 | 3.89° C | 87% | 912.2 hPa | - | - | - | - |
| 1777720737 | 3.33° C | 88% | 912.1 hPa | - | - | - | - |
| 1777719837 | 2.78° C | 95% | 912.3 hPa | - | - | - | - |
| 1777690961 | -0.56° C | 96% | 912.4 hPa | - | - | - | - |
| 1777638723 | 3.33° C | 97% | 914.2 hPa | - | - | - | - |
| 1777637822 | 3.33° C | 97% | 914.3 hPa | - | - | - | - |
* Rain since midnight (hover to see other rain measurements)
** Current wind speed in m/s (hover to see current wind gust speed)